Home   Weather   Pictou   Past weeks

Flag for Canada Past Weather in Pictou, Nova Scotia, Canada — Yesterday and Last 2 Weeks

Now
27 °F

Chilly.


Feels Like: 18 °F
Forecast: 22 / 30 °F
Wind: 9 mph from Northwest

Location: Caribou Point

Current Time: Jan 21, 2017 at 6:48:58 am

Latest Report: Jan 21, 2017 at 6:00 am


Visibility: N/A

Pressure: 29.84 "Hg

Humidity: 90%

Dew Point: 24 °F

Location of PictouLocation

Past Weather in Pictou — Graph

°F

Pictou Temperature Yesterday

Maximum temperature yesterday: 31 °F (at 6:00 pm)
Minimum temperature yesterday: 28 °F (at 12:00 am)
Average temperature yesterday: 29 °F

High & Low Weather Summary for the Past Weeks

 TemperatureHumidityPressure
High48 °F (Jan 12, 4:00 pm)100% (Jan 8, 3:00 am)30.78 "Hg (Jan 8, 3:00 am)
Low-1 °F (Jan 9, 8:00 am)40% (Jan 16, 2:00 pm)29.47 "Hg (Jan 8, 7:00 am)
Average24 °F82%30.16 "Hg
* Reported Jan 6 5:00 am — Jan 21 5:00 am, Pictou, Weather by CustomWeather, © 2017

Note: Actual official high and low records may vary slightly from our data, if they occured in-between our weather recording intervals... More about our weather records

Advertising

Pictou Weather History for the Previous 24 Hours

Scroll right to see more
 ConditionsComfort  
Time TempWeatherWind HumidityBarometerVisibility
5:00 am
Sat, Jan 21
28 °FChilly.14 mph92%29.85 "HgN/A
4:00 am28 °FChilly.13 mph93%29.86 "HgN/A
3:00 am28 °FChilly.13 mph93%29.87 "HgN/A
2:00 am28 °FChilly.13 mph93%29.86 "HgN/A
1:00 am28 °FChilly.12 mph94%29.86 "HgN/A
12:00 am28 °FChilly.12 mph94%29.87 "HgN/A
11:00 pm
Fri, Jan 20
29 °FChilly.8 mph94%29.89 "HgN/A
10:00 pm29 °FChilly.6 mph94%29.89 "HgN/A
9:00 pm29 °FChilly.8 mph100%29.90 "HgN/A
8:00 pm29 °FChilly.9 mph100%29.90 "HgN/A
7:00 pm29 °FChilly.10 mph100%29.91 "HgN/A
6:00 pm31 °FChilly.13 mph93%29.90 "HgN/A
5:00 pm29 °FChilly.13 mph93%29.90 "HgN/A
4:00 pm30 °FChilly.12 mph94%29.89 "HgN/A
3:00 pm30 °FChilly.16 mph95%29.88 "HgN/A
2:00 pm29 °FChilly.14 mph94%29.88 "HgN/A
1:00 pm29 °FChilly.15 mph94%29.88 "HgN/A
12:00 pm29 °FChilly.12 mph100%29.89 "HgN/A
11:00 am29 °FChilly.12 mph100%29.90 "HgN/A
10:00 am28 °FChilly.10 mph96%29.89 "HgN/A
9:00 am28 °FChilly.16 mph96%29.89 "HgN/A
8:00 am29 °FChilly.15 mph97%29.87 "HgN/A
7:00 am29 °FChilly.12 mph96%29.85 "HgN/A
6:00 am29 °FChilly.8 mph96%29.86 "HgN/A
Weather by CustomWeather, © 2017

See weather overviewHow to use our weather pages